YO8RXT-3 Weather Reports


Display with metric or nautical units.
time (UTC)temp
F
wind
direction
speed
MPH
gust
MPH
rain 1hr
in
rain 24hr
in
rain mn
in
humidity
%
barometer
mb
20260831110503 88 150 10.0 0.0 0.00 0.00 0.00 29 1017.0
20260831103502 88 150 9.0 0.0 0.00 0.00 0.00 31 1017.0
20260831100502 86 180 7.0 0.0 0.00 0.00 0.00 31 1017.0
20260831093502 86 160 9.0 0.0 0.00 0.00 0.00 33 1017.0
20260831090502 84 180 9.0 0.0 0.00 0.00 0.00 33 1018.0
20260831083502 82 160 8.0 0.0 0.00 0.00 0.00 35 1018.0
20260831080502 81 170 7.0 0.0 0.00 0.00 0.00 37 1018.0
20260831073502 79 130 7.0 0.0 0.00 0.00 0.00 42 1018.0
20260831070501 75 120 7.0 0.0 0.00 0.00 0.00 47 1018.0
20260831063502 73 120 8.0 0.0 0.00 0.00 0.00 47 1018.0
20260831060502 72 120 9.0 0.0 0.00 0.00 0.00 50 1018.0
20260831053502 70 100 9.0 0.0 0.00 0.00 0.00 53 1018.0
20260831050503 66 90 7.0 0.0 0.00 0.00 0.00 60 1018.0
20260831043502 64 90 7.0 0.0 0.00 0.00 0.00 64 1018.0
20260831040502 64 80 8.0 0.0 0.00 0.00 0.00 64 1018.0
20260831033502 66 80 6.0 0.0 0.00 0.00 0.00 56 1017.0
20260831030502 66 80 6.0 0.0 0.00 0.00 0.00 56 1017.0
20260831023503 66 80 5.0 0.0 0.00 0.00 0.00 56 1018.0
20260831020503 68 80 7.0 0.0 0.00 0.00 0.00 53 1018.0
20260831013501 68 80 6.0 0.0 0.00 0.00 0.00 53 1018.0
20260831010502 70 2.0 0.0 0.00 0.00 0.00 50 1018.0
20260831003502 70 160 5.0 0.0 0.00 0.00 0.00 50 1018.0
20260831000502 72 160 6.0 0.0 0.00 0.00 0.00 47 1018.0
20260830233502 73 160 6.0 0.0 0.00 0.00 0.00 44 1018.0
20260830230502 72 160 7.0 0.0 0.00 0.00 0.00 50 1018.0
20260830223502 72 150 6.0 0.0 0.00 0.00 0.00 50 1018.0
20260830220502 72 110 6.0 0.0 0.00 0.00 0.00 53 1018.0
20260830213502 70 90 8.0 0.0 0.00 0.00 0.00 57 1018.0
20260830210502 70 100 8.0 0.0 0.00 0.00 0.00 57 1018.0
20260830203502 70 80 7.0 0.0 0.00 0.00 0.00 57 1018.0
20260830200502 75 210 2.0 0.0 0.00 0.00 0.00 44 1017.0
20260830193501 75 1.0 0.0 0.00 0.00 0.00 44 1017.0
20260830190502 75 2.0 0.0 0.00 0.00 0.00 44 1017.0
20260830183502 77 200 3.0 0.0 0.00 0.00 0.00 42 1017.0
20260830180502 77 160 5.0 0.0 0.00 0.00 0.00 42 1017.0
20260830173503 79 170 7.0 0.0 0.00 0.00 0.00 39 1017.0
20260830170502 79 160 7.0 0.0 0.00 0.00 0.00 45 1017.0
20260830163502 81 140 9.0 0.0 0.00 0.00 0.00 45 1016.0
20260830160503 81 140 9.0 0.0 0.00 0.00 0.00 45 1016.0
20260830153502 82 140 10.0 0.0 0.00 0.00 0.00 40 1017.0
20260830150502 84 140 11.0 0.0 0.00 0.00 0.00 37 1017.0
20260830143503 84 150 11.0 0.0 0.00 0.00 0.00 37 1016.0
20260830140502 86 170 6.0 0.0 0.00 0.00 0.00 35 1016.0
20260830133501 86 150 7.0 0.0 0.00 0.00 0.00 38 1017.0
20260830130502 86 170 6.0 0.0 0.00 0.00 0.00 35 1017.0
20260830123501 84 190 8.0 0.0 0.00 0.00 0.00 37 1017.0
20260830120501 84 210 5.0 0.0 0.00 0.00 0.00 37 1017.0
20260830113503 84 7.0 0.0 0.00 0.00 0.00 37 1017.0